Regional Weather Roundup
Issued by NWS Albany, NY

Home | Current Version | Previous Version | Text Only | Print | Product List | Glossary On
Versions: 1 2 3 4 5 6 7 8 9 10 11 12 13 14 15 16 17 18 19 20 21 22 23 24 25 26 27 28 29 30 31 32 33 34 35 36 37 38 39 40 41 42 43 44 45 46 47 48 49 50
000
ASUS41 KALY 281810
RWRALY

NEW YORK STATE HOURLY WEATHER ROUNDUP
NATIONAL WEATHER SERVICE ALBANY NY
200 PM EDT SUN MAY 28 2017

NOTE: "FAIR" INDICATES FEW OR NO CLOUDS BELOW 12,000 FEET WITH NO
SIGNIFICANT WEATHER AND/OR NO OBSTRUCTIONS TO VISIBILITY.

NYZ032-033-038>043-046>054-057>066-NYZ062>081-082-084-281900-
EAST


CITY           SKY/WX    TMP DP  RH WIND       PRES   REMARKS
ALBANY         CLOUDY    74  56  53 S12       29.91F
GLENS FALLS    NOT AVBL
POUGHKEEPSIE   CLOUDY    72  57  59 VRB7      29.91F
NEWBURGH       CLOUDY    72  61  68 S12       29.94F
MONTGOMERY     CLOUDY    73  58  59 S9        29.91F
WHITE PLAINS   PTSUNNY   69  57  65 SE12      29.96S
ISLIP          CLOUDY    65  54  67 S12       29.98S
NEW YORK CITY  PTSUNNY   69  56  62 S15G21    29.97R
CENTRAL PARK   CLOUDY    69  56  62 S8G21     29.99S
$$

NYZ005>009-017-018-044>046-055-056-281900-
CENTRAL


CITY           SKY/WX    TMP DP  RH WIND       PRES   REMARKS
FULTON         CLOUDY    74  60  61 VRB5      29.85F
SYRACUSE       CLOUDY    73  58  59 SE7       29.85F
ROME           CLOUDY    72  58  61 E7        29.89R
ELMIRA         CLOUDY    74  54  49 S9        29.84F
BINGHAMTON     CLOUDY    70  53  54 S10       29.89F
MONTICELLO     CLOUDY    70  57  64 SE14      29.94F
$$

NYZ026>034-041>043-087-281900-
NORTH


CITY           SKY/WX    TMP DP  RH WIND       PRES   REMARKS
WATERTOWN      CLOUDY    73  58  59 W7        29.86F
FORT DRUM      NOT AVBL
OGDENSBURG     FAIR      77  53  43 CALM      29.86F
MASSENA        CLOUDY    75  55  49 NW9       29.87S
SARANAC LAKE   MOSUNNY   71  45  39 SW5       29.89S
PLATTSBURGH    MOSUNNY   75  49  39 SE9       29.87F
$$

NYZ001>004-010>016-019>021-085-281900-
WEST


CITY           SKY/WX    TMP DP  RH WIND       PRES   REMARKS
NIAGARA FALLS  PTSUNNY   76  57  51 VRB6      29.78F
BUFFALO        CLOUDY    75  58  55 VRB3      29.78F
DUNKIRK        CLOUDY    71  58  63 N12       29.78F
JAMESTOWN      CLOUDY    72  57  60 S8        29.81F
WELLSVILLE     CLOUDY    71  57  61 S8        29.86F
ROCHESTER      CLOUDY    74  59  59 VRB5      29.81F
PENN YAN       CLOUDY    74  58  57 VRB6      29.84F
$$

             KEY
       WCI = WIND CHILL INDEX
       VSB = VISIBILITY
       HX  = HEAT INDEX
$$



USA.gov is the U.S. government's official web portal to all federal, state and local government web resources and services.